Location: Cluj-Napoca
(46.7712°N, 23.6236°E)
Time: 12:38:36
(UTC+02:00)

NOAA 15 - Visible Passes

Search period start: 01 December 2021 00:00
Search period end: 11 December 2021 00:00
Orbit: 797 x 813 km, 98.7° (Epoch: 30 November)

Date Brightness Start Highest point End Pass type
(mag) Time Alt. Az. Time Alt. Az. Time Alt. Az.
01 Dec 6.2 17:28:08 10° E 17:30:48 14° NE 17:33:29 10° NNE visible
01 Dec 4.4 19:04:28 10° SSE 19:09:46 81° ENE 19:15:04 10° NNW visible
01 Dec 7.3 20:47:14 10° WSW 20:50:10 15° W 20:53:07 10° NW visible
02 Dec 7.2 07:17:06 10° NE 07:21:20 24° E 07:25:33 10° SSE visible
02 Dec 4.7 18:39:32 10° SE 18:44:38 51° ENE 18:49:44 10° N visible
02 Dec 6.6 20:20:24 10° SSW 20:24:40 24° W 20:28:57 10° NW visible
03 Dec 7.5 06:52:55 10° NE 06:55:49 15° E 06:58:42 10° ESE visible
03 Dec 5.2 18:14:57 10° SE 18:19:35 32° ENE 18:24:14 10° N visible
03 Dec 5.8 19:54:19 10° SSW 19:59:15 39° W 20:04:13 10° NNW visible
04 Dec 5.7 17:50:45 10° ESE 17:54:38 21° ENE 17:58:30 10° NNE visible
04 Dec 4.9 19:28:41 10° S 19:33:56 64° WSW 19:39:12 10° NNW visible
05 Dec 6.2 17:27:10 10° E 17:29:46 14° NE 17:32:21 10° NNE visible
05 Dec 4.4 19:03:26 10° SSE 19:08:42 80° ENE 19:14:00 10° NNW visible
05 Dec 7.2 20:46:05 10° SW 20:49:06 15° W 20:52:08 10° NW visible
06 Dec 7.2 07:16:04 10° NE 07:20:16 24° E 07:24:26 10° SE visible
06 Dec 4.7 18:38:30 10° SE 18:43:35 49° ENE 18:48:39 10° N visible
06 Dec 6.6 20:19:18 10° SSW 20:23:36 25° W 20:27:54 10° NW visible
07 Dec 7.5 06:51:56 10° NE 06:54:45 14° E 06:57:32 10° ESE visible
07 Dec 5.2 18:13:56 10° SE 18:18:32 32° ENE 18:23:08 10° N visible
07 Dec 5.8 19:53:15 10° SSW 19:58:12 40° W 20:03:09 10° NNW visible
08 Dec 5.8 17:49:46 10° ESE 17:53:35 21° ENE 17:57:24 10° NNE visible
08 Dec 4.9 19:27:38 10° S 19:32:52 66° WSW 19:38:08 10° NNW visible
09 Dec 6.2 17:26:14 10° E 17:28:43 14° NE 17:31:13 10° NNE visible
09 Dec 4.4 19:02:23 10° SSE 19:07:39 78° ENE 19:12:56 10° NNW visible
09 Dec 7.2 20:44:57 10° SW 20:48:02 16° W 20:51:07 10° NW visible
10 Dec 7.2 07:15:03 10° NE 07:19:12 23° E 07:23:19 10° SE visible
10 Dec 4.7 18:37:28 10° SE 18:42:31 48° ENE 18:47:35 10° N visible
10 Dec 6.6 20:18:12 10° SSW 20:22:31 25° W 20:26:52 10° NW visible
